TimeCST,TemperatureF,Dew PointF,Humidity,Sea Level PressureIn,VisibilityMPH,Wind Direction,Wind SpeedMPH,Gust SpeedMPH,PrecipitationIn,Events,Conditions,WindDirDegrees,DateUTC
12:53 AM,66.9,64.9,93,29.90,10.0,SSW,10.4,-,N/A,,Overcast,210,2012-12-24 06:53:00
1:53 AM,66.9,64.9,93,29.90,10.0,SW,10.4,-,N/A,,Overcast,220,2012-12-24 07:53:00
2:53 AM,64.9,64.0,97,29.90,8.0,SW,5.8,-,N/A,,Overcast,220,2012-12-24 08:53:00
3:06 AM,64.4,64.4,100,29.90,8.0,SW,4.6,-,N/A,,Overcast,230,2012-12-24 09:06:00
3:53 AM,64.9,64.0,97,29.90,7.0,SW,3.5,-,N/A,,Overcast,230,2012-12-24 09:53:00
4:53 AM,64.0,63.0,96,29.90,6.0,SW,4.6,-,N/A,,Overcast,230,2012-12-24 10:53:00
5:53 AM,62.1,62.1,100,29.91,4.0,WSW,3.5,-,N/A,,Overcast,240,2012-12-24 11:53:00
6:50 AM,62.6,60.8,94,29.92,1.5,WSW,3.5,-,N/A,,Overcast,240,2012-12-24 12:50:00
6:53 AM,62.1,62.1,100,29.93,1.2,WSW,3.5,-,N/A,,Overcast,240,2012-12-24 12:53:00
7:03 AM,60.8,60.8,100,29.92,2.0,SW,4.6,-,N/A,,Mostly Cloudy,230,2012-12-24 13:03:00
7:15 AM,62.6,60.8,94,29.93,5.0,SW,3.5,-,N/A,,Scattered Clouds,230,2012-12-24 13:15:00
7:28 AM,60.8,60.8,100,29.93,2.5,WSW,4.6,-,N/A,,Haze,240,2012-12-24 13:28:00
7:53 AM,60.1,60.1,100,29.94,2.5,WSW,3.5,-,N/A,Fog,Fog,240,2012-12-24 13:53:00
7:55 AM,60.8,60.8,100,29.94,4.0,WSW,3.5,-,N/A,,Haze,250,2012-12-24 13:55:00
8:01 AM,60.8,60.8,100,29.94,4.0,Variable,3.5,-,N/A,,Haze,0,2012-12-24 14:01:00
8:53 AM,64.0,64.0,100,29.96,4.0,West,4.6,-,N/A,,Haze,260,2012-12-24 14:53:00
9:13 AM,66.2,64.4,94,29.96,6.0,West,4.6,-,N/A,,Haze,270,2012-12-24 15:13:00
9:20 AM,64.4,64.4,100,29.96,8.0,West,11.5,-,N/A,,Haze,280,2012-12-24 15:20:00
9:53 AM,66.9,63.0,87,29.96,10.0,West,8.1,-,N/A,,Haze,280,2012-12-24 15:53:00
10:53 AM,71.1,60.1,68,29.94,10.0,WNW,6.9,-,0.01,,Haze,300,2012-12-24 16:53:00
11:53 AM,73.0,59.0,61,29.92,10.0,NNW,6.9,-,N/A,,Haze,330,2012-12-24 17:53:00
12:53 PM,73.9,57.0,55,29.89,10.0,Calm,Calm,-,N/A,,Clear,0,2012-12-24 18:53:00
1:53 PM,75.9,57.9,54,29.86,10.0,NNE,5.8,-,N/A,,Clear,30,2012-12-24 19:53:00
2:53 PM,75.9,57.0,52,29.84,10.0,Calm,Calm,-,N/A,,Clear,0,2012-12-24 20:53:00
3:53 PM,75.9,55.9,50,29.83,7.0,Calm,Calm,-,N/A,,Clear,0,2012-12-24 21:53:00
4:53 PM,72.0,61.0,68,29.82,10.0,ESE,3.5,-,N/A,,Clear,110,2012-12-24 22:53:00
5:53 PM,66.9,60.1,79,29.82,10.0,East,6.9,-,N/A,,Clear,90,2012-12-24 23:53:00
6:53 PM,62.1,60.1,93,29.82,8.0,SSE,9.2,-,N/A,,Partly Cloudy,150,2012-12-25 00:53:00
7:53 PM,60.1,59.0,96,29.82,8.0,SE,4.6,-,N/A,,Clear,130,2012-12-25 01:53:00
8:49 PM,59.0,57.2,94,29.82,1.5,SE,3.5,-,N/A,,Clear,130,2012-12-25 02:49:00
8:53 PM,59.0,59.0,100,29.82,1.0,ESE,4.6,-,N/A,,Mist,120,2012-12-25 02:53:00
8:59 PM,60.8,59.0,94,29.82,8.0,ESE,4.6,-,N/A,,Clear,120,2012-12-25 02:59:00
9:53 PM,59.0,59.0,100,29.81,8.0,SE,5.8,-,N/A,,Clear,130,2012-12-25 03:53:00
10:35 PM,60.8,59.0,94,29.81,2.5,SE,4.6,-,N/A,,Partly Cloudy,130,2012-12-25 04:35:00
10:53 PM,60.1,59.0,96,29.80,2.5,ESE,3.5,-,N/A,,Partly Cloudy,120,2012-12-25 04:53:00
11:01 PM,60.8,59.0,94,29.80,3.0,SE,4.6,-,N/A,,Partly Cloudy,130,2012-12-25 05:01:00
11:18 PM,60.8,59.0,94,29.79,2.5,SE,4.6,-,N/A,,Mostly Cloudy,140,2012-12-25 05:18:00
11:25 PM,60.8,60.8,100,29.79,3.0,SE,5.8,-,N/A,,Mostly Cloudy,140,2012-12-25 05:25:00
11:53 PM,61.0,61.0,100,29.78,4.0,SE,5.8,-,N/A,,Overcast,140,2012-12-25 05:53:00